Jackson, MI

9:17 PM EST on November 15, 2019 (GMT -0500)
Jackson County-Reynolds

Weather History for KJXN - August, 2019

Change the Weather History Date:

Friday, August 2, 2019

  Actual Average Record
Temperature  
Mean Temperature 67 °F 71 °F  
Max Temperature 82 °F 81 °F 102 °F (1964)
Min Temperature 51 °F 60 °F 48 °F (1985)
Degree Days  
Heating Degree Days 0 0  
Month to date heating degree days 0 0  
Since 1 June heating degree days 58 66  
Since 1 July heating degree days 0 11  
Cooling Degree Days 2 6  
Month to date cooling degree days 4 12  
Year to date cooling degree days 409 377  
Since 1 June cooling degree days 399 340  
Growing Degree Days 16 (Base 50)    
Moisture  
Dew Point 53 °F    
Average Humidity 68    
Maximum Humidity 100    
Minimum Humidity 35    
Precipitation  
Precipitation 0.00 in 0.11 in 2.09 in (1980)
Month to date precipitation 0.00 0.23  
Year to date precipitation 20.19 17.68  
Sea Level Pressure  
Sea Level Pressure 30.15 in    
Wind  
Wind Speed 3 mph (NNE)    
Max Wind Speed 12 mph    
Max Gust Speed 18 mph    
Visibility 9 miles    
Events      
T = Trace of Precipitation, MM = Missing Value Source: NWS Daily Summary

Daily Weather History Graph

Daily Weather History Graph

Search for Another Location

Airport or City:

Astronomy

Aug. 02, 2019 Rise Set
Actual Time 6:31 AM EDT 8:56 PM EDT
Civil Twilight 5:59 AM EDT 9:27 PM EDT
Nautical Twilight 5:20 AM EDT 10:06 PM EDT
Astronomical Twilight 4:36 AM EDT 10:50 PM EDT
Moon 8:10 AM EDT (8/2) 10:22 PM EDT (8/2)
Length of Visible Light 15h 27m
Length of Day
14h 24m
Waxing Crescent, 4% of the Moon is Illuminated
Aug 2
Waxing Crescent
Aug 7
First Quarter
Aug 15
Full
Aug 23
Last Quarter
Aug 30
New

Hourly Weather History & Observations

Time (EDT) Temp. Dew Point Humidity Pressure Visibility Wind Dir Wind Speed Gust Speed Precip Events Conditions
12:56 AM 57.9 °F 54.0 °F 87% 30.18 in 10.0 mi Calm Calm - N/A   Clear
1:56 AM 60.1 °F 55.0 °F 83% 30.17 in 10.0 mi ENE 3.5 mph - N/A   Clear
2:56 AM 57.9 °F 54.0 °F 87% 30.17 in 10.0 mi NE 3.5 mph - N/A   Clear
3:56 AM 55.0 °F 54.0 °F 96% 30.17 in 10.0 mi Calm Calm - N/A   Clear
4:56 AM 55.0 °F 54.0 °F 96% 30.17 in 10.0 mi Calm Calm - N/A   Clear
5:39 AM 52.0 °F 52.0 °F 100% 30.18 in 1.8 mi Calm Calm - N/A   Clear
5:56 AM 52.0 °F 52.0 °F 100% 30.17 in 1.5 mi Calm Calm - N/A   Clear
6:10 AM 52.0 °F 52.0 °F 100% 30.18 in 0.8 mi Calm Calm - N/A   Clear
6:15 AM 53.1 °F 53.1 °F 100% 30.18 in 2.5 mi Calm Calm - N/A   Clear
6:22 AM 53.1 °F 53.1 °F 100% 30.18 in 9.0 mi Calm Calm - N/A   Clear
6:56 AM 52.0 °F 52.0 °F 100% 30.18 in 10.0 mi SW 3.5 mph - N/A   Clear
7:56 AM 55.9 °F 55.9 °F 100% 30.18 in 10.0 mi Calm Calm - N/A   Clear
8:56 AM 64.9 °F 57.9 °F 78% 30.18 in 10.0 mi Calm Calm - N/A   Clear
9:56 AM 72.0 °F 55.0 °F 55% 30.18 in 10.0 mi NNE 6.9 mph - N/A   Clear
10:56 AM 73.9 °F 55.0 °F 52% 30.18 in 10.0 mi Variable 6.9 mph - N/A   Clear
11:56 AM 75.9 °F 51.1 °F 42% 30.18 in 10.0 mi North 9.2 mph - N/A   Clear
12:56 PM 78.1 °F 50.0 °F 37% 30.17 in 10.0 mi NE 6.9 mph - N/A   Clear
1:56 PM 79.0 °F 50.0 °F 36% 30.16 in 10.0 mi North 8.1 mph - N/A   Clear
2:56 PM 80.1 °F 50.0 °F 35% 30.15 in 10.0 mi Variable 4.6 mph - N/A   Clear
3:56 PM 81.0 °F 52.0 °F 36% 30.14 in 10.0 mi North 9.2 mph - N/A   Clear
4:56 PM 81.0 °F 50.0 °F 34% 30.12 in 10.0 mi NE 4.6 mph - N/A   Clear
5:56 PM 81.0 °F 51.1 °F 35% 30.11 in 10.0 mi North - - N/A   Clear
6:56 PM 80.1 °F 50.0 °F 35% 30.10 in 10.0 mi Variable 3.5 mph - N/A   Clear
7:56 PM 77.0 °F 53.1 °F 43% 30.10 in 10.0 mi NE 4.6 mph - N/A   Clear
8:56 PM 72.0 °F 54.0 °F 53% 30.10 in 10.0 mi Calm Calm - N/A   Clear
9:56 PM 63.0 °F 57.0 °F 81% 30.11 in 10.0 mi Calm Calm - N/A   Clear
10:56 PM 61.0 °F 55.9 °F 83% 30.12 in 10.0 mi Calm Calm - N/A   Clear
11:56 PM 57.9 °F 55.9 °F 93% 30.12 in 10.0 mi SW 3.5 mph - N/A   Clear